Florennes, Belgium

2:43 AM CEST on August 30, 2016 (GMT +0200)
Florennes Air Base

Weather History for EBFS - October, 2013

Change the Weather History Date:

Wednesday, October 30, 2013

  Actual Average Record
Temperature  
Mean Temperature 45 °F -  
Max Temperature 52 °F 43 °F 62 °F (2014)
Min Temperature 38 °F 37 °F 30 °F (1997)
Degree Days  
Heating Degree Days 20    
Moisture  
Dew Point 41 °F    
Average Humidity 90    
Maximum Humidity 100    
Minimum Humidity 62    
Precipitation  
Precipitation 0.00 in - - ()
Sea Level Pressure  
Sea Level Pressure 30.22 in    
Wind  
Wind Speed 6 mph ()    
Max Wind Speed 10 mph    
Max Gust Speed -    
Visibility 7.1 miles    
Events      
Averages and records for this station are not official NWS values.
T = Trace of Precipitation, MM = Missing Value Source: Averaged Metar Reports

Daily Weather History Graph

Daily Weather History Graph

Search for Another Location

Airport or City:

Trip Planner

Search our weather history database for the weather conditions in past years. The results will help you decide how hot, cold, wet, or windy it might be!

Date:

Astronomy

Oct. 30, 2013 Rise Set
Actual Time 7:28 AM CET 5:20 PM CET
Civil Twilight 6:54 AM CET 5:54 PM CET
Nautical Twilight 6:16 AM CET 6:33 PM CET
Astronomical Twilight 5:38 AM CET 7:10 PM CET
Moon 2:36 AM CET 3:19 PM CET
Length of Visible Light 11h 00m
Length of Day
9h 52m
Waning Crescent, 19% of the Moon is Illuminated
Oct 30
Waning Crescent
Nov 3
New
Nov 10
First Quarter
Nov 17
Full
Nov 25
Last Quarter

Hourly Weather History & Observations

Time (CET) Temp. Windchill Dew Point Humidity Pressure Visibility Wind Dir Wind Speed Gust Speed Precip Events Conditions
12:25 AM 42.8 °F 38.0 °F 41.0 °F 93% 30.09 in 6.2 mi WSW 8.1 mph - N/A   Mostly Cloudy
12:55 AM 41.0 °F 35.8 °F 41.0 °F 100% 30.09 in 6.2 mi WSW 8.1 mph - N/A   Mostly Cloudy
1:00 AM 42 °F - 40 °F 92% 30.13 in 16 mi WSW 6.7 mph - -   Partly Cloudy
1:25 AM 41.0 °F 35.8 °F 39.2 °F 93% 30.09 in 6.2 mi SW 8.1 mph - N/A   Partly Cloudy
1:55 AM 41.0 °F 35.8 °F 39.2 °F 93% 30.09 in 6.2 mi SW 8.1 mph - N/A   Partly Cloudy
2:25 AM 41.0 °F 37.1 °F 39.2 °F 93% 30.12 in 6.2 mi WSW 5.8 mph - N/A   Partly Cloudy
2:55 AM 41.0 °F 37.1 °F 39.2 °F 93% 30.12 in 6.2 mi WSW 5.8 mph - N/A   Partly Cloudy
3:25 AM 39.2 °F 34.2 °F 39.2 °F 100% 30.12 in 6.2 mi WSW 6.9 mph - N/A   Partly Cloudy
3:55 AM 39.2 °F 35.0 °F 39.2 °F 100% 30.12 in 6.2 mi WSW 5.8 mph - N/A   Partly Cloudy
4:00 AM 39 °F - 39 °F 98% 30.17 in 16 mi WSW 4.5 mph - -   Clear
4:25 AM 39.2 °F 34.2 °F 39.2 °F 100% 30.12 in 6.2 mi WSW 6.9 mph - N/A   Partly Cloudy
4:55 AM 39.2 °F 34.2 °F 39.2 °F 100% 30.15 in 6.2 mi SW 6.9 mph - N/A   Partly Cloudy
5:25 AM 39.2 °F 35.0 °F 39.2 °F 100% 30.15 in 6.2 mi SW 5.8 mph - N/A   Partly Cloudy
5:55 AM 39.2 °F 37.0 °F 39.2 °F 100% 30.15 in 6.2 mi SW 3.5 mph - N/A   Scattered Clouds
6:22 AM 39.2 °F 35.9 °F 39.2 °F 100% 30.15 in 6.2 mi WSW 4.6 mph - N/A   Scattered Clouds
6:25 AM 39.2 °F 37.0 °F 39.2 °F 100% 30.15 in 6.2 mi West 3.5 mph - N/A   Scattered Clouds
6:55 AM 39.2 °F 37.0 °F 39.2 °F 100% 30.18 in 6.2 mi SSW 3.5 mph - N/A   Scattered Clouds
7:00 AM 39 °F - 38 °F 97% 30.22 in 9 mi 2.2 mph - -   Scattered Clouds
7:23 AM 39.2 °F 35.0 °F 39.2 °F 100% 30.18 in 5.0 mi WSW 5.8 mph - N/A   Scattered Clouds
7:25 AM 39.2 °F 35.0 °F 39.2 °F 100% 30.18 in 5.0 mi WSW 5.8 mph - N/A   Scattered Clouds
7:55 AM 39.2 °F 35.0 °F 39.2 °F 100% 30.18 in 5.0 mi SW 5.8 mph - N/A   Partly Cloudy
8:22 AM 41.0 °F 36.4 °F 39.2 °F 93% 30.21 in 5.0 mi SW 6.9 mph - N/A   Partly Cloudy
8:25 AM 41.0 °F 35.8 °F 39.2 °F 93% 30.21 in 5.0 mi SW 8.1 mph - N/A   Partly Cloudy
8:45 AM 41.0 °F 35.8 °F 39.2 °F 93% 30.21 in 5.0 mi SW 8.1 mph - N/A   Partly Cloudy
8:52 AM 41.0 °F 35.2 °F 39.2 °F 93% 30.21 in 5.0 mi SW 9.2 mph - N/A   Scattered Clouds
8:55 AM 41.0 °F 35.2 °F 41.0 °F 100% 30.21 in 5.0 mi SW 9.2 mph - N/A   Scattered Clouds
9:25 AM 42.8 °F 38.0 °F 41.0 °F 93% 30.24 in 6.2 mi SW 8.1 mph - N/A   Scattered Clouds
9:35 AM 42.8 °F 38.0 °F 41.0 °F 93% 30.24 in 6.2 mi SW 8.1 mph - N/A   Partly Cloudy
9:55 AM 44.6 °F 39.7 °F 42.8 °F 93% 30.24 in 6.2 mi SW 9.2 mph - N/A   Partly Cloudy
10:00 AM 44 °F - 42 °F 90% 30.28 in 9 mi SW 8.9 mph - -   Scattered Clouds
10:25 AM 44.6 °F 39.7 °F 42.8 °F 93% 30.24 in 6.2 mi SW 9.2 mph - N/A   Partly Cloudy
10:55 AM 46.4 °F 42.4 °F 42.8 °F 87% 30.24 in 6.2 mi SSW 8.1 mph - N/A   Partly Cloudy
11:14 AM 46.4 °F 42.4 °F 42.8 °F 87% 30.24 in 6.2 mi SW 8.1 mph - N/A   Partly Cloudy
11:25 AM 48.2 °F - 44.6 °F 87% 30.24 in 6.2 mi SSW 6.9 mph - N/A   Partly Cloudy
11:55 AM 50.0 °F - 42.8 °F 76% 30.24 in 6.2 mi SW 8.1 mph - N/A   Partly Cloudy
12:25 PM 50.0 °F - 42.8 °F 76% 30.24 in 6.2 mi SW 9.2 mph - N/A   Partly Cloudy
12:55 PM 50.0 °F - 42.8 °F 76% 30.24 in 6.2 mi WSW 8.1 mph - N/A   Partly Cloudy
1:00 PM 51 °F - 42 °F 62% 30.27 in 16 mi WSW 6.7 mph - -   Scattered Clouds
1:25 PM 50.0 °F - 41.0 °F 71% 30.24 in 6.2 mi SW 9.2 mph - N/A   Partly Cloudy
1:55 PM 51.8 °F - 42.8 °F 71% 30.24 in 6.2 mi SW 9.2 mph - N/A   Partly Cloudy
2:25 PM 50.0 °F - 42.8 °F 76% 30.24 in 6.2 mi SSW 10.4 mph - N/A   Partly Cloudy
2:55 PM 50.0 °F - 42.8 °F 76% 30.24 in 6.2 mi SSW 10.4 mph - N/A   Partly Cloudy
3:25 PM 50.0 °F - 42.8 °F 76% 30.24 in 6.2 mi SSW 10.4 mph - N/A   Partly Cloudy
3:55 PM 50.0 °F - 42.8 °F 76% 30.24 in 6.2 mi SSW 10.4 mph - N/A   Partly Cloudy
4:00 PM 49 °F - 42 °F 71% 30.27 in 16 mi SSW 8.9 mph - -   Scattered Clouds
4:25 PM 48.2 °F - 42.8 °F 82% 30.24 in 6.2 mi SSW 9.2 mph - N/A   Partly Cloudy
4:55 PM 46.4 °F 42.9 °F 42.8 °F 87% 30.24 in 6.2 mi South 6.9 mph - N/A   Partly Cloudy
5:19 PM 46.4 °F 43.5 °F 42.8 °F 87% 30.24 in 6.2 mi South 5.8 mph - N/A   Partly Cloudy
5:25 PM 46.4 °F 42.9 °F 42.8 °F 87% 30.24 in 6.2 mi South 6.9 mph - N/A   Partly Cloudy
5:55 PM 44.6 °F 41.4 °F 41.0 °F 87% 30.27 in 6.2 mi South 5.8 mph - N/A   Partly Cloudy
6:25 PM 44.6 °F 40.7 °F 42.8 °F 93% 30.27 in 6.2 mi South 6.9 mph - N/A   Partly Cloudy
6:55 PM 42.8 °F 40.1 °F 41.0 °F 93% 30.27 in 6.2 mi South 4.6 mph - N/A   Partly Cloudy
7:00 PM 44 °F - 41 °F 86% 30.30 in 16 mi South 4.5 mph - -   Clear
7:25 PM 42.8 °F 40.1 °F 41.0 °F 93% 30.27 in 6.2 mi SSE 4.6 mph - N/A   Partly Cloudy
7:55 PM 42.8 °F 39.3 °F 41.0 °F 93% 30.27 in 6.2 mi South 5.8 mph - N/A   Partly Cloudy
8:25 PM 42.8 °F 39.3 °F 41.0 °F 93% 30.27 in 6.2 mi South 5.8 mph - N/A   Partly Cloudy
8:55 PM 42.8 °F 39.3 °F 41.0 °F 93% 30.27 in 6.2 mi South 5.8 mph - N/A   Partly Cloudy
9:25 PM 42.8 °F 39.3 °F 41.0 °F 93% 30.27 in 6.2 mi South 5.8 mph - N/A   Partly Cloudy
9:55 PM 42.8 °F 40.1 °F 41.0 °F 93% 30.27 in 6.2 mi South 4.6 mph - N/A   Partly Cloudy
10:00 PM 43 °F - 41 °F 90% 30.32 in 16 mi South 4.5 mph - -   Clear
10:25 PM 42.8 °F 40.1 °F 41.0 °F 93% 30.27 in 6.2 mi South 4.6 mph - N/A   Partly Cloudy
10:55 PM 42.8 °F 39.3 °F 41.0 °F 93% 30.27 in 6.2 mi South 5.8 mph - N/A   Partly Cloudy
11:25 PM 42.8 °F 38.6 °F 41.0 °F 93% 30.27 in 6.2 mi South 6.9 mph - N/A   Partly Cloudy
11:55 PM 42.8 °F 39.3 °F 41.0 °F 93% 30.30 in 6.2 mi South 5.8 mph - N/A   Partly Cloudy